Langdon, ND

12:36 AM CDT on May 28, 2017 (GMT -0500)
Langdon

Weather History for KD55 - March, 2013

Change the Weather History Date:

Sunday, March 17, 2013

  Actual Average (KDVL) Record (KDVL)
Temperature  
Mean Temperature -4 °F -  
Max Temperature 14 °F 36 °F 68 °F (2012)
Min Temperature -22 °F 17 °F -11 °F (1993)
Degree Days  
Heating Degree Days 69    
Moisture  
Dew Point -3 °F    
Average Humidity 84    
Maximum Humidity 93    
Minimum Humidity 69    
Precipitation  
Precipitation 0.03 in - - ()
Sea Level Pressure  
Sea Level Pressure 29.88 in    
Wind  
Wind Speed 15 mph (SE)    
Max Wind Speed 30 mph    
Max Gust Speed 33 mph    
Visibility 5 miles    
Events Rain , Snow    
Averages and records for this station are not official NWS values.
T = Trace of Precipitation, MM = Missing Value Source: NWS Daily Summary

Daily Weather History Graph

Daily Weather History Graph

Search for Another Location

Airport or City:

Trip Planner

Search our weather history database for the weather conditions in past years. The results will help you decide how hot, cold, wet, or windy it might be!

Date:

Astronomy

Mar. 17, 2013 Rise Set
Actual Time 7:42 AM CDT 7:42 PM CDT
Civil Twilight 7:10 AM CDT 8:13 PM CDT
Nautical Twilight 6:33 AM CDT 8:50 PM CDT
Astronomical Twilight 5:56 AM CDT 9:28 PM CDT
Moon 10:28 AM CDT (3/17) 1:18 AM CDT (3/17)
Length of Visible Light 13h 03m
Length of Day
12h 00m
Waxing Crescent, 31% of the Moon is Illuminated
Mar 17
Waxing Crescent
Mar 19
First Quarter
Mar 27
Full
Apr 2
Last Quarter
Apr 10
New

Hourly Weather History & Observations

Time (CDT) Temp. Windchill Dew Point Humidity Pressure Visibility Wind Dir Wind Speed Gust Speed Precip Events Conditions
12:15 AM -20.2 °F -33.5 °F -25.6 °F 76% 30.20 in 10.0 mi SE 4.6 mph - N/A   Clear
12:35 AM -20.2 °F -33.5 °F -27.4 °F 69% 30.19 in 10.0 mi ESE 4.6 mph - N/A   Clear
12:55 AM -22.0 °F -37.7 °F -27.4 °F 76% 30.18 in 10.0 mi ESE 5.8 mph - N/A   Clear
1:15 AM -22.0 °F -35.6 °F -27.4 °F 76% 30.18 in 9.0 mi SE 4.6 mph - N/A   Clear
1:35 AM -18.4 °F -31.4 °F -22.0 °F 84% 30.18 in 10.0 mi South 4.6 mph - N/A   Clear
1:55 AM -20.2 °F -37.3 °F -25.6 °F 76% 30.17 in 10.0 mi SE 6.9 mph - N/A   Clear
2:15 AM -20.2 °F -40.1 °F -25.6 °F 76% 30.16 in 10.0 mi SE 9.2 mph - N/A   Clear
2:35 AM -20.2 °F -38.8 °F -25.6 °F 76% 30.15 in 10.0 mi SE 8.1 mph - N/A   Clear
2:55 AM -20.2 °F -42.4 °F -25.6 °F 76% 30.16 in 10.0 mi SSE 11.5 mph - N/A   Clear
3:15 AM -16.6 °F -37.9 °F -22.0 °F 76% 30.14 in 10.0 mi SE 11.5 mph - N/A   Partly Cloudy
3:35 AM -14.8 °F -37.5 °F -20.2 °F 77% 30.13 in 10.0 mi SE 13.8 mph - N/A   Mostly Cloudy
3:55 AM -11.2 °F -31.1 °F -16.6 °F 77% 30.12 in 10.0 mi SE 11.5 mph - N/A   Overcast
4:15 AM -9.4 °F -26.8 °F -13.0 °F 84% 30.12 in 10.0 mi SSE 9.2 mph - N/A   Overcast
4:35 AM -7.6 °F -27.5 °F -13.0 °F 77% 30.11 in 10.0 mi SE 12.7 mph - N/A   Mostly Cloudy
4:55 AM -9.4 °F -29.8 °F -13.0 °F 84% 30.09 in 10.0 mi SE 12.7 mph - N/A   Mostly Cloudy
5:15 AM -7.6 °F -28.3 °F - N/A% 30.09 in 10.0 mi SE 13.8 mph - N/A   Overcast
5:35 AM -5.8 °F -24.4 °F -11.2 °F 77% 30.08 in 10.0 mi SE 11.5 mph - N/A   Overcast
5:55 AM -4.0 °F -23.0 °F -9.4 °F 78% 30.07 in 10.0 mi SE 12.7 mph - N/A   Overcast
6:15 AM -4.0 °F -23.0 °F -9.4 °F 78% 30.07 in 10.0 mi SE 12.7 mph - N/A   Overcast
6:35 AM -4.0 °F -24.5 °F -9.4 °F 78% 30.06 in 10.0 mi SE 15.0 mph - N/A   Overcast
6:55 AM -4.0 °F -27.0 °F -7.6 °F 85% 30.05 in 10.0 mi SSE 19.6 mph - N/A   Overcast
7:15 AM -2.2 °F -24.7 °F -7.6 °F 78% 30.03 in 9.0 mi SE 19.6 mph - N/A   Overcast
7:35 AM -2.2 °F -25.7 °F -7.6 °F 78% 30.01 in 5.0 mi SE 21.9 mph 27.6 mph N/A   Overcast
7:55 AM -2.2 °F -24.7 °F -7.6 °F 78% 30.01 in 7.0 mi SSE 19.6 mph - N/A   Overcast
8:15 AM -2.2 °F -24.1 °F -7.6 °F 78% 29.99 in 9.0 mi SE 18.4 mph - N/A   Overcast
8:35 AM -2.2 °F -25.2 °F -7.6 °F 78% 29.98 in 9.0 mi SSE 20.7 mph - N/A   Overcast
8:55 AM -2.2 °F -24.1 °F -7.6 °F 78% 29.98 in 10.0 mi SSE 18.4 mph - N/A   Overcast
9:15 AM -0.4 °F -22.3 °F -5.8 °F 78% 29.96 in 3.0 mi SSE 19.6 mph 26.5 mph N/A   Haze
9:35 AM -0.4 °F -22.8 °F -4.0 °F 85% 29.95 in 5.0 mi SSE 20.7 mph - N/A   Haze
10:15 AM -0.4 °F -23.3 °F -4.0 °F 85% 29.94 in 2.5 mi SSE 21.9 mph - N/A   Overcast
10:35 AM -0.4 °F -22.3 °F -4.0 °F 85% 29.93 in 2.0 mi SSE 19.6 mph 25.3 mph N/A Snow Light Snow
10:55 AM 1.4 °F -20.5 °F -2.2 °F 85% 29.91 in 2.0 mi SSE 20.7 mph - N/A Snow Light Snow
11:15 AM 1.4 °F -21.4 °F -2.2 °F 85% 29.90 in 1.8 mi SSE 23.0 mph - N/A   Overcast
11:35 AM 1.4 °F -21.9 °F -2.2 °F 85% 29.89 in 1.5 mi SSE 24.2 mph 28.8 mph N/A   Overcast
11:55 AM 1.4 °F -21.4 °F -0.4 °F 92% 29.87 in 1.8 mi SSE 23.0 mph - N/A   Overcast
12:15 PM 3.2 °F -19.9 °F -0.4 °F 85% 29.86 in 1.5 mi SSE 25.3 mph - N/A   Overcast
12:35 PM 3.2 °F -19.5 °F -0.4 °F 85% 29.86 in 1.5 mi SSE 24.2 mph 29.9 mph N/A   Overcast
12:55 PM 3.2 °F -19.0 °F -0.4 °F 85% 29.85 in 1.8 mi SSE 23.0 mph - N/A Snow Light Snow
1:15 PM 3.2 °F -18.6 °F -0.4 °F 85% 29.85 in 1.5 mi SSE 21.9 mph - N/A   Overcast
1:35 PM 3.2 °F -18.6 °F -0.4 °F 85% 29.84 in 2.0 mi SSE 21.9 mph 26.5 mph N/A   Overcast
1:55 PM 5.0 °F -16.7 °F -0.4 °F 78% 29.83 in 1.8 mi SE 23.0 mph 28.8 mph N/A Snow Light Snow
2:15 PM 5.0 °F -17.5 °F -0.4 °F 78% 29.81 in 1.0 mi SSE 25.3 mph - N/A   Overcast
2:35 PM 5.0 °F -17.9 °F 1.4 °F 85% 29.79 in 1.0 mi SE 26.5 mph 32.2 mph N/A   Overcast
2:55 PM 5.0 °F -19.0 °F 1.4 °F 85% 29.78 in 0.8 mi SSE 29.9 mph 33.4 mph N/A   Overcast
3:15 PM 5.0 °F -17.9 °F 1.4 °F 85% 29.77 in 1.0 mi SSE 26.5 mph 33.4 mph N/A   Overcast
3:35 PM 5.0 °F -17.5 °F 1.4 °F 85% 29.75 in 1.2 mi SE 25.3 mph 31.1 mph N/A   Overcast
3:55 PM 6.8 °F -15.1 °F 3.2 °F 85% 29.74 in 1.0 mi SE 25.3 mph 31.1 mph N/A   Overcast
4:15 PM 6.8 °F -15.5 °F 3.2 °F 85% 29.72 in 1.0 mi SE 26.5 mph 31.1 mph N/A   Overcast
4:35 PM 6.8 °F -15.1 °F 5.0 °F 92% 29.72 in 1.0 mi SE 25.3 mph 28.8 mph N/A   Overcast
4:55 PM 8.6 °F -12.3 °F 5.0 °F 85% 29.70 in 1.2 mi SE 24.2 mph 32.2 mph N/A   Overcast
5:15 PM 8.6 °F -13.4 °F 5.0 °F 85% 29.69 in 1.2 mi SE 27.6 mph 32.2 mph N/A   Overcast
5:35 PM 8.6 °F -13.1 °F 5.0 °F 85% 29.68 in 1.0 mi SE 26.5 mph 32.2 mph N/A   Overcast
5:55 PM 8.6 °F -11.9 °F 6.8 °F 92% 29.68 in 1.0 mi SE 23.0 mph 31.1 mph N/A   Overcast
6:15 PM 8.6 °F -11.4 °F 6.8 °F 92% 29.67 in 1.5 mi SE 21.9 mph 31.1 mph N/A   Overcast
6:35 PM 8.6 °F -11.4 °F 6.8 °F 92% 29.68 in 1.8 mi SE 21.9 mph - N/A Snow Light Snow
6:55 PM 8.6 °F -11.4 °F 6.8 °F 92% 29.67 in 2.0 mi SE 21.9 mph 26.5 mph N/A   Overcast
7:15 PM 8.6 °F -11.9 °F 6.8 °F 92% 29.66 in 1.8 mi SE 23.0 mph - N/A   Overcast
7:35 PM 10.4 °F -9.5 °F 6.8 °F 85% 29.66 in 3.0 mi SE 23.0 mph - N/A   Overcast
7:55 PM 10.4 °F -8.2 °F 8.6 °F 92% 29.66 in 4.0 mi SE 19.6 mph - N/A   Overcast
8:15 PM 10.4 °F -8.6 °F 8.6 °F 92% 29.65 in 4.0 mi SE 20.7 mph - N/A Snow Light Snow
8:35 PM 10.4 °F -7.7 °F 8.6 °F 92% 29.65 in 4.0 mi SE 18.4 mph - N/A Snow Light Snow
8:55 PM 10.4 °F -8.6 °F 8.6 °F 92% 29.64 in 1.5 mi SE 20.7 mph - N/A Rain Light Freezing Rain
9:15 PM 10.4 °F -8.6 °F 8.6 °F 92% 29.63 in 2.0 mi SE 20.7 mph - N/A Snow Light Snow
9:35 PM 12.2 °F -5.8 °F 10.4 °F 92% 29.62 in 1.8 mi SE 19.6 mph - N/A Snow Light Snow
9:55 PM 12.2 °F -5.8 °F 10.4 °F 92% 29.61 in 1.2 mi SE 19.6 mph 26.5 mph N/A Snow Light Snow
10:15 PM 14.0 °F -3.9 °F 10.4 °F 86% 29.59 in 1.8 mi ESE 20.7 mph - N/A Snow Light Snow
10:35 PM 14.0 °F -3.9 °F 10.4 °F 86% 29.59 in 2.5 mi SE 20.7 mph 26.5 mph N/A Snow Light Snow
10:55 PM 14.0 °F -3.9 °F 12.2 °F 93% 29.58 in 1.2 mi ESE 20.7 mph - 0.01 in Snow Light Snow
11:15 PM 14.0 °F -3.4 °F 12.2 °F 93% 29.57 in 3.0 mi ESE 19.6 mph - N/A Snow Light Snow
11:35 PM 14.0 °F -3.4 °F 12.2 °F 93% 29.57 in 2.5 mi ESE 19.6 mph - N/A Snow Light Snow
11:55 PM 14.0 °F -2.5 °F 12.2 °F 93% 29.56 in 1.8 mi ESE 17.3 mph - 0.02 in Snow Light Snow